Location: Gaast
(52.9002°N, 5.8891°E)
Time: 08:55:09
(UTC+00:00)

BREEZE-M DEB (TANK) - Pass Details

Date: 18 November 2025
Orbit: 274 x 13338 km, 49.4° (Epoch: 11 December)

Event Time Altitude Azimuth Distance (km) Brightness Sun altitude
Rises 19:02:48 0° 255° (WSW) 2,499 7.1 -30.5°
Reaches altitude 10° 19:04:09 10° 252° (WSW) 1,899 6.3 -30.7°
Enters shadow 19:07:02 56° 219° (SW) 1,070 4.2 -31.2°
